Find Starlink 35029

NORAD ID: 65445 Int'l Des: 2025-194 Owner: SPXS Country: US Constellation: starlink operational
LEOCIRCULARRETROGRADESSO

現在のビュー

3D地球を読み込み中...

About Starlink 35029

Starlink 35029 (NORAD 65445) is a starlink constellation satellite (v2 mini) launched Sep 3, 2025 by SPXS of US. It operates in LEO, CIRCULAR, RETROGRADE, SSO orbit with a mass of 575.00 kg.

次回通過

Passes for default location (London). Set your location on the main map for personalized predictions.

高度履歴

Loading altitude history...

軌道要素

1 65445U 25194M 26263.54425001 .00011987 00000-0 37287-3 0 9991
2 65445 97.2847 113.1735 0003385 83.9912 276.1716 15.33455272 59073
Epoch: Sep 20, 2026 • Age: 17 hours

現在のステータス

高度 467.5 km
遠地点 / 近地点 N/A
速度 7.64 km/s
衛星直下点 26.74°N, 13.98°E
打ち上げ日 Sep 3, 2025
運用期間 1 year
タイプ internet

技術仕様

分類 Payload
質量 575.00 kg
乾燥質量 530.00 kg
長さ 0.30 m
スパン 29.00 m
形状 ? Box + pan
製造者 SPXS
バスタイプ Starlink V2MO
フェーズステータス In Orbit
所有者/国 SPXS/US

Most Searched